Skip Navigation Links
NOAA logo - Click to go to the NOAA homepage
NOAA's National Weather Service
Alaska Aviation Weather Unit
  NWS logo - Click to go to the NWS homepage
Left Navbar Graphic     22 AKDT = 06 GMT

   
NOAA is celebrating 200 years of science, service, and stewardship. Visit the NOAA 200th celebration Web site to learn more.
USA.gov is the U.S. Government's official Web portal to all Federal, state and local government Web resources and services.
Facebook
NWS on Facebook

Important Change Regarding the AAWU Web Presence

 

Over the last several months, the AAWU has been working to navigate its webpages to a nationally supported server. Security, as well as other needs, have necessitated the change.  In the process, we have made an effort to enhance the functionality of our website, as well as some of our products. As of June 20, 2017, aawu.arh.noaa.gov will be discontinued. The new AAWU web address is weather.gov/aawu. It is now live and will run in-parallel with the old site until it is discontinued. Please send any feedback or questions regarding the new webpages to nws.ar.aawu.webauthors@noaa.gov.  Thank you for your patience during this time of transition.
AAWU Home :: Display TAF Add Bookmark
TAF PAJN 280522Z 2806/2906 00000KT P6SM BKN200
     FM281600 25004KT P6SM BKN200
     FM282000 24011KT P6SM SCT070
     FM290400 08007KT P6SM SCT070=
METAR PAJN 280053Z 24009KT 10SM FEW090 BKN250 OVC300 16/04 A3020=

METAR PAJN 280153Z 23009KT 10SM FEW200 OVC250 16/03 A3020=

METAR PAJN 280253Z 23006KT 10SM SCT200 OVC250 15/04 A3019=

METAR PAJN 280353Z 00000KT 10SM SCT200 OVC250 16/04 A3018=

METAR PAJN 280453Z 00000KT 10SM FEW200 OVC250 13/05 A3017=

METAR PAJN 280553Z 00000KT 10SM FEW200 OVC250 11/06 A3018=


NOAA's National Weather Service
Alaska Aviation Weather Unit
6930 Sand Lake Road
Anchorage, AK 99502-1845
Disclaimer
Credits
Glossary
Privacy Policy
About Us
Career Opportunities
Contact AAWU Internet Services Site last modified: April, 17th 2012